Weather History for KONM - September, 2013

Change the Weather History Date:

Tuesday, September 3, 2013

  Actual Average Record
Temperature  
Mean Temperature 80 °F -  
Max Temperature 93 °F 88 °F 97 °F (2012)
Min Temperature 68 °F 54 °F 62 °F (2010)
Cooling Degree Days 16    
Growing Degree Days 30 (Base 50)    
Moisture  
Dew Point 56 °F    
Average Humidity 47    
Maximum Humidity 79    
Minimum Humidity 24    
Precipitation  
Precipitation 0.00 in - - ()
Sea Level Pressure  
Sea Level Pressure 30.18 in    
Wind  
Wind Speed 4 mph (South)    
Max Wind Speed 9 mph    
Max Gust Speed 16 mph    
Visibility 10 miles    
Events      
Averages and records for this station are not official NWS values.
T = Trace of Precipitation, MM = Missing Value Source: NWS Daily Summary

Daily Weather History Graph

Daily Weather History Graph

Search for Another Location

Airport or City:

Trip Planner

Search our weather history database for the weather conditions in past years. The results will help you decide how hot, cold, wet, or windy it might be!

Date:

Astronomy

Sep. 03, 2013 Rise Set
Actual Time 6:42 AM MDT 7:30 PM MDT
Civil Twilight 6:17 AM MDT 7:55 PM MDT
Nautical Twilight 5:47 AM MDT 8:25 PM MDT
Astronomical Twilight 5:16 AM MDT 8:56 PM MDT
Moon 5:01 AM MDT (9/3) 6:18 PM MDT (9/3)
Length of Visible Light 13h 38m
Length of Day
12h 47m
Waning Crescent, 3% of the Moon is Illuminated
Sep 3
Waning Crescent
Sep 5
New
Sep 12
First Quarter
Sep 19
Full
Sep 26
Last Quarter

Hourly Weather History & Observations

Time (MDT) Temp. Heat Index Dew Point Humidity Pressure Visibility Wind Dir Wind Speed Gust Speed Precip Events Conditions
12:15 AM 75.2 °F - 60.8 °F 61% 30.19 in 10.0 mi SSW 4.6 mph - N/A   Scattered Clouds
12:35 AM 74.3 °F - 61.0 °F 63% 30.19 in 10.0 mi SSW 5.8 mph - N/A   Clear
12:55 AM 73.9 °F - 60.8 °F 63% 30.19 in 10.0 mi SW 5.8 mph - N/A   Scattered Clouds
1:15 AM 73.8 °F - 60.6 °F 63% 30.18 in 10.0 mi SW 8.1 mph - N/A   Mostly Cloudy
1:35 AM 73.4 °F - 59.9 °F 63% 30.19 in 10.0 mi SSW 3.5 mph - N/A   Scattered Clouds
1:55 AM 72.9 °F - 59.0 °F 62% 30.18 in 10.0 mi SSW 6.9 mph - N/A   Scattered Clouds
2:15 AM 72.7 °F - 59.2 °F 62% 30.19 in 10.0 mi SE 5.8 mph - N/A   Scattered Clouds
2:35 AM 70.2 °F - 61.2 °F 73% 30.19 in 10.0 mi Calm Calm - N/A   Mostly Cloudy
2:55 AM 71.6 °F - 60.3 °F 67% 30.19 in 10.0 mi SSW 3.5 mph - N/A   Overcast
3:15 AM 72.0 °F - 59.4 °F 64% 30.19 in 10.0 mi Calm Calm - N/A   Scattered Clouds
3:35 AM 70.9 °F - 58.5 °F 65% 30.19 in 10.0 mi Calm Calm - N/A   Clear
3:55 AM 71.6 °F - 58.5 °F 63% 30.19 in 10.0 mi WSW 3.5 mph - N/A   Clear
4:15 AM 71.8 °F - 58.5 °F 63% 30.19 in 10.0 mi West 3.5 mph - N/A   Clear
4:35 AM 70.2 °F - 61.5 °F 74% 30.19 in 10.0 mi Calm Calm - N/A   Clear
4:55 AM 69.3 °F - 61.9 °F 77% 30.20 in 10.0 mi Calm Calm - N/A   Clear
5:15 AM 68.4 °F - 61.7 °F 79% 30.20 in 10.0 mi Calm Calm - N/A   Clear
5:35 AM 68.2 °F - 61.5 °F 79% 30.20 in 10.0 mi WNW 5.8 mph - N/A   Scattered Clouds
5:55 AM 68.9 °F - 61.7 °F 78% 30.21 in 10.0 mi WNW 4.6 mph - N/A   Clear
6:15 AM 69.8 °F - 61.0 °F 73% 30.21 in 10.0 mi WNW 4.6 mph - N/A   Clear
6:35 AM 69.1 °F - 60.6 °F 74% 30.21 in 10.0 mi NW 3.5 mph - N/A   Clear
6:55 AM 68.9 °F - 60.3 °F 74% 30.21 in 10.0 mi Calm Calm - N/A   Clear
7:15 AM 69.8 °F - 60.3 °F 72% 30.22 in 10.0 mi Calm Calm - N/A   Clear
7:35 AM 72.0 °F - 59.9 °F 66% 30.23 in 10.0 mi Calm Calm - N/A   Mostly Cloudy
7:55 AM 73.6 °F - 60.1 °F 63% 30.23 in 10.0 mi Calm Calm - N/A   Scattered Clouds
8:15 AM 74.3 °F - 61.9 °F 65% 30.23 in 10.0 mi Calm Calm - N/A   Clear
8:35 AM 74.5 °F - 62.6 °F 66% 30.24 in 10.0 mi ESE 3.5 mph - N/A   Clear
8:55 AM 75.7 °F - 62.6 °F 64% 30.24 in 10.0 mi ESE 3.5 mph - N/A   Clear
9:15 AM 77.7 °F - 62.1 °F 58% 30.24 in 10.0 mi East 3.5 mph - N/A   Clear
9:35 AM 79.9 °F - 60.1 °F 51% 30.24 in 10.0 mi East 4.6 mph - N/A   Clear
9:55 AM 80.4 °F 80.9 °F 58.5 °F 47% 30.24 in 10.0 mi SE 5.8 mph - N/A   Clear
10:15 AM 81.9 °F 81.7 °F 57.0 °F 43% 30.24 in 10.0 mi SSE 3.5 mph - N/A   Clear
10:35 AM 82.6 °F 82.1 °F 56.8 °F 41% 30.24 in 10.0 mi Calm Calm - N/A   Clear
10:55 AM 84.6 °F 83.4 °F 55.6 °F 37% 30.24 in 10.0 mi ESE 3.5 mph - N/A   Clear
11:15 AM 85.1 °F 83.9 °F 56.1 °F 37% 30.24 in 10.0 mi ESE 5.8 mph - N/A   Clear
11:35 AM 85.8 °F 84.2 °F 54.3 °F 34% 30.24 in 10.0 mi SSE 6.9 mph - N/A   Clear
11:55 AM 86.9 °F 85.1 °F 54.7 °F 33% 30.23 in 10.0 mi Calm Calm - N/A   Clear
12:15 PM 87.4 °F 85.7 °F 55.4 °F 33% 30.23 in 10.0 mi SE 8.1 mph - N/A   Clear
12:35 PM 88.2 °F 86.7 °F 56.1 °F 34% 30.22 in 10.0 mi ESE 8.1 mph - N/A   Clear
12:55 PM 88.5 °F 86.9 °F 55.8 °F 33% 30.21 in 10.0 mi South 5.8 mph - N/A   Clear
1:15 PM 89.2 °F 87.5 °F 55.8 °F 32% 30.20 in 10.0 mi SSW 4.6 mph - N/A   Clear
1:35 PM 90.3 °F 88.3 °F 54.5 °F 30% 30.19 in 10.0 mi SE 6.9 mph - N/A   Clear
1:55 PM 90.9 °F 88.5 °F 53.8 °F 28% 30.18 in 10.0 mi Calm Calm - N/A   Clear
2:15 PM 92.1 °F 89.7 °F 53.4 °F 27% 30.17 in 10.0 mi SE 8.1 mph - N/A   Clear
2:35 PM 91.8 °F 89.3 °F 53.4 °F 27% 30.16 in 10.0 mi SSE 5.8 mph - N/A   Clear
2:55 PM 92.7 °F 90.1 °F 53.2 °F 26% 30.15 in 10.0 mi South 5.8 mph - N/A   Clear
3:15 PM 93.2 °F - 51.6 °F 24% 30.14 in 10.0 mi South 9.2 mph - N/A   Clear
3:35 PM 93.2 °F 90.8 °F 53.1 °F 26% 30.13 in 10.0 mi SSE 6.9 mph - N/A   Clear
3:55 PM 93.4 °F - 52.5 °F 25% 30.12 in 10.0 mi South 8.1 mph - N/A   Clear
4:15 PM 93.2 °F - 52.0 °F 25% 30.12 in 10.0 mi ESE 9.2 mph - N/A   Clear
4:35 PM 93.2 °F - 52.2 °F 25% 30.11 in 10.0 mi SSE 8.1 mph 16.1 mph N/A   Scattered Clouds
4:55 PM 92.1 °F - 52.3 °F 26% 30.11 in 10.0 mi SE 3.5 mph - N/A   Clear
5:15 PM 93.0 °F - 51.4 °F 24% 30.11 in 10.0 mi SE 9.2 mph - N/A   Clear
5:35 PM 92.8 °F - 52.0 °F 25% 30.11 in 10.0 mi South 8.1 mph - N/A   Clear
5:55 PM 91.6 °F - 52.0 °F 26% 30.10 in 10.0 mi SE 3.5 mph - N/A   Clear
6:15 PM 91.6 °F - 51.8 °F 26% 30.10 in 10.0 mi South 3.5 mph - N/A   Clear
6:35 PM 91.4 °F - 50.9 °F 25% 30.10 in 10.0 mi South 9.2 mph - N/A   Clear
6:55 PM 90.3 °F - 50.9 °F 26% 30.10 in 10.0 mi South 8.1 mph - N/A   Clear
7:15 PM 88.9 °F - 50.9 °F 27% 30.10 in 10.0 mi South 6.9 mph - N/A   Clear
7:35 PM 87.6 °F - 50.4 °F 28% 30.10 in 10.0 mi South 5.8 mph - N/A   Clear
7:55 PM 86.2 °F - 50.9 °F 30% 30.11 in 10.0 mi South 4.6 mph - N/A   Clear
8:15 PM 83.3 °F - 50.2 °F 32% 30.11 in 10.0 mi SW 4.6 mph - N/A   Clear
8:35 PM 82.6 °F - 50.9 °F 33% 30.11 in 10.0 mi SW 6.9 mph - N/A   Clear
8:55 PM 82.0 °F - 50.9 °F 34% 30.12 in 10.0 mi WSW 3.5 mph - N/A   Clear
9:15 PM 83.1 °F - 52.2 °F 34% 30.13 in 10.0 mi WSW 6.9 mph - N/A   Clear
9:35 PM 81.0 °F 80.5 °F 54.0 °F 39% 30.13 in 10.0 mi Calm Calm - N/A   Clear
9:55 PM 80.8 °F 80.4 °F 53.6 °F 39% 30.14 in 10.0 mi SSE 4.6 mph - N/A   Clear
10:15 PM 76.5 °F - 56.5 °F 50% 30.15 in 10.0 mi SSE 5.8 mph - N/A   Clear
10:35 PM 76.1 °F - 56.5 °F 50% 30.16 in 10.0 mi SSE 5.8 mph - N/A   Clear
10:55 PM 76.3 °F - 55.8 °F 49% 30.17 in 10.0 mi South 5.8 mph - N/A   Mostly Cloudy
11:15 PM 76.6 °F - 54.9 °F 47% 30.19 in 10.0 mi South 4.6 mph - N/A   Mostly Cloudy
11:35 PM 76.1 °F - 54.5 °F 47% 30.19 in 10.0 mi South 4.6 mph - N/A   Scattered Clouds
11:55 PM 75.4 °F - 54.0 °F 47% 30.19 in 10.0 mi Calm Calm - N/A   Scattered Clouds